When you browse on this site, cookies collect data to enhance your experience and personalize the content and advertising you see.
Visit our Privacy Policy to learn more. By continuing to use the site, you agree to this use of cookies and data.
  • In Slovakia
  • List of Countries
  • For 7 days
  • Water Temperature
  • Weather Map
  • Weather Widgets
  • user-avatar
    Login

    Hourly Weather Viedma

    Today, 17 February, Monday

    Time Temperature Precipitation Wind Pressure Humidity
    00:00 +20°C° 0 mm 5 mps 750 mmHg 55%
    01:00 +20°C° 0 mm 5 mps 750 mmHg 58%
    02:00 +20°C° 0 mm 4 mps 750 mmHg 64%
    03:00 +20°C° 0 mm 4 mps 750 mmHg 65%
    04:00 +20°C° 0 mm 4 mps 749 mmHg 66%
    05:00 +21°C° 0 mm 4 mps 749 mmHg 67%
    06:00 +21°C° 0 mm 4 mps 750 mmHg 62%
    07:00 +22°C° 0 mm 4 mps 750 mmHg 57%
    08:00 +24°C° 0 mm 3 mps 750 mmHg 52%
    09:00 +25°C° 0 mm 4 mps 750 mmHg 45%
    10:00 +26°C° 0 mm 4 mps 751 mmHg 38%
    11:00 +28°C° 0 mm 5 mps 751 mmHg 31%
    12:00 +27°C° 0 mm 5 mps 751 mmHg 33%
    13:00 +27°C° 0 mm 4 mps 751 mmHg 34%
    14:00 +27°C° 0 mm 4 mps 752 mmHg 35%
    15:00 +26°C° 0 mm 5 mps 751 mmHg 41%
    16:00 +24°C° 0 mm 7 mps 751 mmHg 47%
    17:00 +23°C° 0 mm 8 mps 751 mmHg 53%
    18:00 +21°C° 0 mm 7 mps 751 mmHg 60%
    19:00 +20°C° 0 mm 7 mps 752 mmHg 67%
    20:00 +17°C° 0 mm 6 mps 753 mmHg 74%
    21:00 +17°C° 0 mm 5 mps 753 mmHg 75%
    22:00 +17°C° 0 mm 3 mps 753 mmHg 77%
    23:00 +17°C° 0 mm 2 mps 753 mmHg 78%

    Tomorrow, 18 February, Tuesday

    Time Temperature Precipitation Wind Pressure Humidity
    00:00 +17°C° 0 mm 3 mps 754 mmHg 79%
    01:00 +16°C° 0 mm 3 mps 754 mmHg 79%
    02:00 +16°C° 0 mm 3 mps 754 mmHg 80%
    03:00 +15°C° 0 mm 4 mps 754 mmHg 79%
    04:00 +15°C° 0 mm 4 mps 754 mmHg 78%
    05:00 +15°C° 0 mm 4 mps 755 mmHg 76%
    06:00 +17°C° 0 mm 5 mps 755 mmHg 63%
    07:00 +20°C° 0 mm 6 mps 755 mmHg 50%
    08:00 +22°C° 0 mm 7 mps 755 mmHg 37%
    09:00 +23°C° 0 mm 7 mps 755 mmHg 32%
    10:00 +26°C° 0 mm 7 mps 754 mmHg 26%
    11:00 +27°C° 0 mm 7 mps 754 mmHg 21%
    12:00 +28°C° 0 mm 6 mps 754 mmHg 20%
    13:00 +29°C° 0 mm 5 mps 753 mmHg 19%
    14:00 +30°C° 0 mm 4 mps 753 mmHg 19%
    15:00 +30°C° 0 mm 4 mps 752 mmHg 18%
    16:00 +32°C° 0 mm 4 mps 752 mmHg 18%
    17:00 +31°C° 0 mm 3 mps 751 mmHg 17%
    18:00 +29°C° 0 mm 4 mps 751 mmHg 23%
    19:00 +26°C° 0 mm 5 mps 751 mmHg 30%
    20:00 +23°C° 0 mm 6 mps 751 mmHg 36%
    21:00 +23°C° 0 mm 5 mps 750 mmHg 36%
    22:00 +22°C° 0 mm 4 mps 750 mmHg 36%
    23:00 +23°C° 0 mm 2 mps 750 mmHg 35%

    Day after tomorrow, 19 February, Wednesday

    Time Temperature Precipitation Wind Pressure Humidity
    00:00 +22°C° 0 mm 4 mps 750 mmHg 38%
    01:00 +22°C° 0 mm 6 mps 750 mmHg 40%
    02:00 +22°C° 0 mm 7 mps 750 mmHg 42%
    03:00 +21°C° 0 mm 8 mps 751 mmHg 42%
    04:00 +20°C° 0 mm 8 mps 751 mmHg 41%
    05:00 +20°C° 0 mm 8 mps 752 mmHg 41%
    06:00 +19°C° 0 mm 9 mps 752 mmHg 39%
    07:00 +19°C° 0 mm 10 mps 753 mmHg 37%
    08:00 +19°C° 0 mm 10 mps 754 mmHg 35%
    09:00 +19°C° 0 mm 10 mps 754 mmHg 34%
    10:00 +21°C° 0 mm 9 mps 755 mmHg 33%
    11:00 +21°C° 0 mm 9 mps 755 mmHg 33%
    12:00 +21°C° 0 mm 9 mps 755 mmHg 31%
    13:00 +22°C° 0 mm 9 mps 756 mmHg 30%
    14:00 +22°C° 0 mm 9 mps 756 mmHg 28%
    15:00 +21°C° 0 mm 8 mps 756 mmHg 27%
    16:00 +21°C° 0 mm 7 mps 756 mmHg 27%
    17:00 +20°C° 0 mm 7 mps 756 mmHg 26%
    18:00 +19°C° 0 mm 6 mps 757 mmHg 32%
    19:00 +16°C° 0 mm 5 mps 757 mmHg 38%
    20:00 +15°C° 0 mm 5 mps 758 mmHg 44%
    21:00 +14°C° 0 mm 4 mps 759 mmHg 47%
    22:00 +14°C° 0 mm 4 mps 759 mmHg 50%
    23:00 +14°C° 0 mm 3 mps 760 mmHg 52%

    20 February, Thursday

    Time Temperature Precipitation Wind Pressure Humidity
    00:00 +13°C° 0 mm 3 mps 760 mmHg 52%
    01:00 +13°C° 0 mm 3 mps 760 mmHg 51%
    02:00 +13°C° 0 mm 3 mps 760 mmHg 50%
    03:00 +13°C° 0 mm 4 mps 761 mmHg 49%
    04:00 +13°C° 0 mm 4 mps 761 mmHg 48%
    05:00 +13°C° 0 mm 4 mps 762 mmHg 47%
    06:00 +14°C° 0 mm 6 mps 762 mmHg 43%
    07:00 +15°C° 0 mm 7 mps 762 mmHg 39%
    08:00 +17°C° 0 mm 9 mps 763 mmHg 35%
    09:00 +17°C° 0 mm 10 mps 763 mmHg 35%
    10:00 +18°C° 0 mm 10 mps 764 mmHg 34%
    11:00 +19°C° 0 mm 11 mps 764 mmHg 34%
    12:00 +19°C° 0 mm 10 mps 764 mmHg 36%
    13:00 +19°C° 0 mm 10 mps 764 mmHg 38%
    14:00 +19°C° 0 mm 10 mps 764 mmHg 40%
    15:00 +19°C° 0 mm 9 mps 764 mmHg 42%
    16:00 +18°C° 0 mm 9 mps 764 mmHg 44%
    17:00 +18°C° 0 mm 9 mps 764 mmHg 47%
    18:00 +17°C° 0 mm 8 mps 764 mmHg 52%
    19:00 +16°C° 0 mm 7 mps 765 mmHg 57%
    20:00 +15°C° 0 mm 6 mps 765 mmHg 62%
    21:00 +14°C° 0 mm 6 mps 765 mmHg 64%
    22:00 +14°C° 0 mm 5 mps 766 mmHg 66%
    23:00 +14°C° 0 mm 4 mps 766 mmHg 68%

    21 February, Friday

    Time Temperature Precipitation Wind Pressure Humidity
    00:00 +14°C° 0 mm 4 mps 766 mmHg 67%
    01:00 +14°C° 0 mm 5 mps 766 mmHg 66%
    02:00 +14°C° 0 mm 5 mps 766 mmHg 65%
    09:00 +16°C° 0 mm 5 mps 767 mmHg 52%
    10:00 +17°C° 0 mm 5 mps 767 mmHg 47%
    11:00 +19°C° 0 mm 4 mps 767 mmHg 43%
    12:00 +20°C° 0 mm 4 mps 767 mmHg 41%
    13:00 +21°C° 0 mm 4 mps 767 mmHg 38%
    14:00 +21°C° 0 mm 4 mps 766 mmHg 36%
    15:00 +21°C° 0 mm 5 mps 766 mmHg 38%
    16:00 +20°C° 0 mm 5 mps 765 mmHg 41%
    17:00 +20°C° 0 mm 5 mps 765 mmHg 44%
    18:00 +17°C° 0 mm 5 mps 765 mmHg 50%
    19:00 +17°C° 0 mm 4 mps 765 mmHg 56%
    20:00 +14°C° 0 mm 4 mps 765 mmHg 63%
    21:00 +14°C° 0 mm 4 mps 765 mmHg 65%
    22:00 +13°C° 0 mm 3 mps 765 mmHg 68%
    23:00 +13°C° 0 mm 3 mps 765 mmHg 71%

    22 February, Saturday

    Time Temperature Precipitation Wind Pressure Humidity
    00:00 +13°C° 0 mm 3 mps 765 mmHg 72%
    01:00 +13°C° 0 mm 2 mps 764 mmHg 74%
    02:00 +13°C° 0 mm 2 mps 764 mmHg 75%
    03:00 +13°C° 0 mm 2 mps 764 mmHg 77%
    04:00 +12°C° 0 mm 3 mps 763 mmHg 78%
    05:00 +12°C° 0 mm 3 mps 763 mmHg 80%
    06:00 +13°C° 0 mm 3 mps 763 mmHg 73%
    07:00 +15°C° 0 mm 4 mps 763 mmHg 67%
    08:00 +16°C° 0 mm 5 mps 763 mmHg 60%
    09:00 +19°C° 0 mm 5 mps 763 mmHg 52%
    10:00 +21°C° 0 mm 5 mps 762 mmHg 43%
    11:00 +23°C° 0 mm 5 mps 762 mmHg 35%
    12:00 +25°C° 0 mm 5 mps 761 mmHg 31%
    13:00 +26°C° 0 mm 5 mps 760 mmHg 27%
    14:00 +28°C° 0 mm 5 mps 759 mmHg 23%
    15:00 +27°C° 0 mm 6 mps 759 mmHg 27%
    16:00 +26°C° 0 mm 7 mps 758 mmHg 32%
    17:00 +26°C° 0 mm 7 mps 757 mmHg 36%
    18:00 +23°C° 0 mm 7 mps 757 mmHg 45%
    19:00 +21°C° 0 mm 7 mps 757 mmHg 53%
    20:00 +18°C° 0 mm 7 mps 756 mmHg 62%
    21:00 +18°C° 0 mm 7 mps 756 mmHg 64%
    22:00 +18°C° 0 mm 7 mps 756 mmHg 65%
    23:00 +18°C° 0 mm 8 mps 755 mmHg 67%
    Show more